EW6183 Toms River NJ US current weather conditions

sailwx.info

Wind from 281 at 2 knots gusting 7

Air temperature 3.3° C
Dewpoint -3.3° C

Last reported at 2020-Jan-28 23:02 UTC.
Time now 2020-Jan-28 23:44 UTC

Location: N 40°07' W 074°20'.
View on Google Maps.

See reports from other nearby stations

  
Tides and Currents Weather Stations Pressure Air Temp Water Temp Dewpoint Dewpoint Depression Visibility Wind Speed Wind Dir Waves Ship Positions
date/time (UTC)wind fromknots sea level pressurealtimeterstation pressurevisibilityair tempwater tempwave heightnotes
2020-Jan-28 23:02 281 2 gusting 7 3.3
2020-Jan-28 22:46 274 4 gusting 7 3.3
2020-Jan-28 22:31 267 1 gusting 7 3.3
2020-Jan-28 22:16 319 3 gusting 7 3.3
2020-Jan-28 22:01 322 2 gusting 6 3.3
2020-Jan-28 21:46 327 2 gusting 8 3.3
2020-Jan-28 21:31 232 1 gusting 8 3.3
2020-Jan-28 21:16 311 1 gusting 6 3.3
2020-Jan-28 21:00 082 3 gusting 8 3.9
2020-Jan-28 20:46 263 3 gusting 13 3.9
2020-Jan-28 20:32 245 2 gusting 11 3.9
2020-Jan-28 20:15 272 0 gusting 13 3.9
2020-Jan-28 20:01 240 2 gusting 8 4.4
2020-Jan-28 19:45 042 3 gusting 10 4.4
2020-Jan-28 19:31 255 3 gusting 9 4.4
2020-Jan-28 19:15 229 4 gusting 10 4.4
2020-Jan-28 19:00 311 4 gusting 13 5.6
2020-Jan-28 18:47 257 0 gusting 16 6.1
2020-Jan-28 18:31 255 4 gusting 11 5.6
2020-Jan-28 18:15 249 3 gusting 13 6.1
2020-Jan-28 18:00 017 3 gusting 13 6.1
2020-Jan-28 17:46 033 4 gusting 11 5.6
2020-Jan-28 17:32 234 3 gusting 11 6.1
2020-Jan-28 17:16 276 1 gusting 6 6.1
2020-Jan-28 17:01 297 5 gusting 8 5.6
2020-Jan-28 16:45 082 4 gusting 11 6.1
2020-Jan-28 16:30 302 1 gusting 12 6.1
2020-Jan-28 16:15 250 4 gusting 11 6.1
2020-Jan-28 16:01 333 5 gusting 11 5.6
2020-Jan-28 15:45 269 3 gusting 7 5.6
2020-Jan-28 15:30 267 3 gusting 8 5.0
2020-Jan-28 15:15 304 3 gusting 14 5.0
2020-Jan-28 15:00 246 2 gusting 13 4.4
2020-Jan-28 14:48 247 3 gusting 9 3.9
2020-Jan-28 14:32 254 3 gusting 8 3.3
2020-Jan-28 14:17 005 0 gusting 9 2.8
2020-Jan-28 14:02 230 1 gusting 6 2.8
2020-Jan-28 13:46 348 1 gusting 6 2.2
2020-Jan-28 13:31 246 1 gusting 5 1.7
2020-Jan-28 13:16 247 0 gusting 3 1.1
2020-Jan-28 13:02 271 0 gusting 2 0.6
2020-Jan-28 12:46 254 0 gusting 2 0.6
2020-Jan-28 12:32 254 0 gusting 3 0.6
2020-Jan-28 12:16 248 1 gusting 3 0.6
2020-Jan-28 12:01 269 0 gusting 3 1.1
2020-Jan-28 11:46 259 1 gusting 5 1.7
2020-Jan-28 11:31 263 1 gusting 5 1.7
2020-Jan-28 11:16 284 2 gusting 7 2.2
2020-Jan-28 11:01 260 1 gusting 6 2.2
2020-Jan-28 10:46 266 2 gusting 8 2.2
2020-Jan-28 10:31 307 1 gusting 6 2.2
2020-Jan-28 10:16 298 0 gusting 6 1.7
2020-Jan-28 10:01 258 0 gusting 7 1.7
2020-Jan-28 09:46 275 0 gusting 6 1.7
2020-Jan-28 09:30 287 0 gusting 6 1.1
2020-Jan-28 09:16 286 1.1
2020-Jan-28 09:01 286 1.7
2020-Jan-28 08:45 256 0 gusting 4 1.7
2020-Jan-28 08:31 276 2.2
2020-Jan-28 08:15 251 1 gusting 6 2.8
2020-Jan-28 08:01 304 2 gusting 11 2.8
2020-Jan-28 07:45 300 0 gusting 6 2.8
2020-Jan-28 07:30 286 1 gusting 4 2.8
2020-Jan-28 07:15 256 1 gusting 6 2.8
2020-Jan-28 07:00 250 2.8
2020-Jan-28 06:45 277 0 gusting 6 2.8
2020-Jan-28 06:30 295 1 gusting 4 2.8
2020-Jan-28 06:15 272 0 gusting 4 3.3
2020-Jan-28 06:00 262 1 gusting 3 3.3
2020-Jan-28 05:47 288 0 gusting 5 3.3
2020-Jan-28 05:31 269 1 gusting 6 3.3
2020-Jan-28 05:17 289 0 gusting 5 3.9
2020-Jan-28 05:02 278 1 gusting 6 3.9
2020-Jan-28 04:47 315 0 gusting 2 3.9
2020-Jan-28 04:16 280 0 gusting 2 3.3
2020-Jan-28 04:03 280 0 gusting 2 3.3
2020-Jan-28 03:46 280 3.3
2020-Jan-28 03:31 279 3.3
2020-Jan-28 03:17 279 0 gusting 1 3.3
2020-Jan-28 03:02 279 3.3
2020-Jan-28 02:46 279 3.3
2020-Jan-28 02:32 279 3.3
2020-Jan-28 02:17 279 3.3
2020-Jan-28 02:01 279 3.3
2020-Jan-28 01:47 279 3.3
2020-Jan-28 01:31 279 3.3
2020-Jan-28 01:17 279 3.3
2020-Jan-28 01:02 279 0 gusting 2 2.8
2020-Jan-28 00:46 279 3.3
2020-Jan-28 00:31 279 3.9
2020-Jan-28 00:16 279 0 gusting 2 4.4
2020-Jan-28 00:01 269 1 gusting 4 5.0
2020-Jan-27 23:46 261 1 gusting 3 5.0
2020-Jan-27 23:32 271 0 gusting 6 5.0
2020-Jan-27 23:16 265 1 gusting 6 5.0
2020-Jan-27 23:01 264 2 gusting 7 5.0
2020-Jan-27 22:46 270 1 gusting 6 5.0
2020-Jan-27 22:33 266 0 gusting 2 5.0
2020-Jan-27 22:18 283 0 gusting 3 5.6
2020-Jan-27 22:01 294 0 gusting 4 5.6
2020-Jan-27 21:47 317 0 gusting 3 5.6
2020-Jan-27 21:32 250 1 gusting 4 5.6
2020-Jan-27 21:16 256 1 gusting 3 6.1
2020-Jan-27 21:01 254 1 gusting 6 6.1
2020-Jan-27 20:46 262 1 gusting 6 6.1
2020-Jan-27 20:31 271 1 gusting 6 6.1
2020-Jan-27 20:15 283 3 gusting 8 6.1
2020-Jan-27 20:00 227 2 gusting 7 6.1
2020-Jan-27 19:46 238 2 gusting 8 6.1
2020-Jan-27 19:30 273 1 gusting 6 5.6
2020-Jan-27 19:16 290 4 gusting 8 5.6
2020-Jan-27 19:01 288 3 gusting 6 6.1
2020-Jan-27 18:46 297 4 gusting 9 6.1
2020-Jan-27 18:30 280 0 gusting 6 5.6
2020-Jan-27 18:16 264 3 gusting 7 5.6
2020-Jan-27 18:02 250 2 gusting 8 5.6
2020-Jan-27 17:46 252 1 gusting 6 5.6
2020-Jan-27 17:30 219 3 gusting 7 5.6
2020-Jan-27 17:15 242 3 gusting 7 6.1
2020-Jan-27 17:00 263 2 gusting 6 6.1
2020-Jan-27 16:46 222 3 gusting 7 5.6
2020-Jan-27 16:30 265 0 gusting 6 5.6
2020-Jan-27 16:15 238 2 gusting 7 5.6
2020-Jan-27 16:00 265 2 gusting 6 5.6
2020-Jan-27 15:45 179 2 gusting 5 5.6
2020-Jan-27 15:30 215 1 gusting 6 5.0
2020-Jan-27 15:15 237 1 gusting 5 5.0
2020-Jan-27 15:00 215 1 gusting 4 4.4
2020-Jan-27 14:47 232 1 gusting 5 3.9
2020-Jan-27 14:32 250 1 gusting 6 3.3
2020-Jan-27 14:18 277 0 gusting 6 3.3
2020-Jan-27 14:03 212 1 gusting 6 2.8
2020-Jan-27 13:46 252 0 gusting 3 2.2
2020-Jan-27 13:31 218 1.7
2020-Jan-27 13:16 205 0 gusting 2 1.1
2020-Jan-27 13:01 205 0.6
2020-Jan-27 12:46 205 -0.0
2020-Jan-27 12:32 205 -0.6
2020-Jan-27 12:16 205 -0.6
2020-Jan-27 12:01 205 -0.6
2020-Jan-27 11:46 205 -0.0
2020-Jan-27 11:31 205 -0.0
2020-Jan-27 11:01 205 0.6
2020-Jan-27 10:45 252 0.6
2020-Jan-27 10:31 252 0 gusting 2 -0.0
2020-Jan-27 10:16 247 -0.0
2020-Jan-27 10:01 265 -0.6
2020-Jan-27 09:46 266 -0.6
2020-Jan-27 09:30 267 -1.1
2020-Jan-27 09:16 267 -1.7
2020-Jan-27 09:01 266 -2.2
2020-Jan-27 08:45 267 -2.8
2020-Jan-27 08:30 267 -3.3
2020-Jan-27 08:15 267 -3.3
2020-Jan-27 08:00 267 -2.8
2020-Jan-27 07:45 267 -2.8
2020-Jan-27 07:30 266 -2.8
2020-Jan-27 07:15 266 -2.8
2020-Jan-27 07:00 267 -2.8
2020-Jan-27 06:48 267 -2.8
2020-Jan-27 06:32 267 -2.8
2020-Jan-27 06:17 266 -2.8
2020-Jan-27 06:02 267 -2.2
2020-Jan-27 05:46 266 -2.2
2020-Jan-27 05:33 266 -2.2
2020-Jan-27 05:16 266 -2.2
2020-Jan-27 05:01 266 -1.7
2020-Jan-27 04:47 266 -1.7
2020-Jan-27 04:32 266 -1.7
2020-Jan-27 04:17 267 -1.7
2020-Jan-27 04:04 267 -1.1
2020-Jan-27 03:46 267 -0.6
2020-Jan-27 03:31 266 -0.0
2020-Jan-27 03:16 267 0.6
2020-Jan-27 03:01 267 1.1
2020-Jan-27 02:31 267 2.2
2020-Jan-27 02:17 266 2.8
2020-Jan-27 02:02 266 0 gusting 3 2.8
2020-Jan-27 01:47 258 0 gusting 3 2.8
2020-Jan-27 01:31 264 0 gusting 2 2.8
2020-Jan-27 01:16 274 3.3
2020-Jan-27 01:01 274 3.9
2020-Jan-27 00:46 288 0 gusting 2 4.4
2020-Jan-27 00:31 273 2 gusting 5 5.0
2020-Jan-27 00:16 264 1 gusting 5 5.0
2020-Jan-27 00:02 261 1 gusting 4 5.0
2020-Jan-26 23:46 261 5.0
2020-Jan-26 23:32 261 5.0
2020-Jan-26 23:16 261 5.0
2020-Jan-26 23:01 261 5.0